Regional Weather Roundup
Issued by NWS

Home | Current Version | Previous Version | Graphics & Text | Print | Product List | Glossary Off
Versions: 1 2 3 4 5 6 7 8 9 10 11 12 13 14 15 16 17 18 19 20 21 22 23 24 25 26 27 28 29 30 31 32 33 34 35 36 37 38 39 40 41 42 43 44 45 46 47 48 49 50

000
ASUS43 KIND 262259
RWRIN

WEATHER ROUNDUP FOR INDIANA
NATIONAL WEATHER SERVICE INDIANAPOLIS IN
700 PM EDT THU MAR 26 2015

NOTE: "FAIR" INDICATES FEW OR NO CLOUDS BELOW 12,000 FEET WITH NO
SIGNIFICANT WEATHER AND/OR OBSTRUCTIONS TO VISIBILITY.

* - STATION DOES NOT REPORT WEATHER SUCH AS PRECIPITATION OR FOG.

+ - STATION NOT QUALITY CONTROLLED BY THE NATIONAL WEATHER SERVICE.
    USE DATA WITH CAUTION...ESPECIALLY DEWPOINT AND RELATIVE
    HUMIDITY OBSERVATIONS.

INZ001>003-010>013-019-020-270000-
NORTHWEST INDIANA

CITY           SKY/WX    TMP DP  RH WIND       PRES   REMARKS
GARY /AIRPORT/ PTSUNNY   39  19  45 NE9       30.01R

$$

LMZ046-743>745-270000-
SOUTHERN LAKE MICHIGAN

STATION/POSITION TIME  TEMP WIND        PRES
                       AIR  DIR/SP/G
                 (UTC) (F)  (DEG/KT/KT) (MB)
BURNS HARBOR     2200   36   40/  4/  6 1016.6R
MICHIGAN CITY    2200   36  320/  6/  6   N/A

$$

INZ004-005-014>016-021>024-270000-
NORTH CENTRAL INDIANA

CITY           SKY/WX    TMP DP  RH WIND       PRES   REMARKS
ELKHART        CLOUDY    37  19  48 NW9       29.97S
GOSHEN         CLOUDY    38  22  52 NW18G24   29.95S
SOUTH BEND     CLOUDY    38  23  55 NW15      29.98S

$$

INZ006>009-017-018-025>027-270000-
NORTHEAST INDIANA

CITY           SKY/WX    TMP DP  RH WIND       PRES   REMARKS
ANGOLA *+      CLOUDY    37  23  56 NW13      29.92R
FORT WAYNE     PTSUNNY   39  26  59 NW17G26   29.94R

$$

INZ028-029-035-036-043>045-051>053-270000-
WEST CENTRAL INDIANA

CITY           SKY/WX    TMP DP  RH WIND       PRES   REMARKS
CRAWFORDSVL +  PTSUNNY   40  25  54 MISG      29.96R
GREENCASTLE +  MOSUNNY   43  28  56 W6        29.96S
LAFAYETTE      PTSUNNY   43  27  53 NW13      29.96S
TERRE HAUTE    MOSUNNY   45  31  58 NW10      29.98R

$$

INZ030>032-037>040-046>048-054>057-064-065-270000-
CENTRAL INDIANA

CITY           SKY/WX    TMP DP  RH WIND       PRES   REMARKS
GREENWOOD *+   CLOUDY    43  30  61 NW13      29.95S
INDIANAPOLIS   PTSUNNY   42  30  62 NW12      29.94R
-EAGLE CREEK   MOSUNNY   43  30  60 NW9       29.94S
KOKOMO *+        N/A     43  30  61 N12       29.94R
MT COMFORT *+  PTSUNNY   43  25  49 NW10      29.94S
SHELBYVILLE    CLOUDY    44  33  65 NW12      29.94R

$$

INZ033-034-041-042-049-050-058-059-270000-
EAST CENTRAL INDIANA

CITY           SKY/WX    TMP DP  RH WIND       PRES   REMARKS
MUNCIE         CLOUDY    43  32  65 NW15      29.92S

$$

INZ060-061-067>069-081>083-085>088-270000-
SOUTHWEST INDIANA

CITY           SKY/WX    TMP DP  RH WIND       PRES   REMARKS
EVANSVILLE     CLOUDY    45  33  63 N9        30.00R
HUNTINGBURG *+ CLOUDY    43  34  70 NW12G17   29.98R

$$

INZ062-063-066-070>080-084-089>092-270000-
SOUTH CENTRAL AND SOUTHEAST INDIANA

CITY           SKY/WX    TMP DP  RH WIND       PRES   REMARKS
BLOOMINGTON    PTSUNNY   43  33  68 W8        29.96R
SEYMOUR +      CLOUDY    45  34  65 NW8       29.95S

$$



USA.gov is the U.S. government's official web portal to all federal, state and local government web resources and services.